TimeCST,TemperatureF,Dew PointF,Humidity,Sea Level PressureIn,VisibilityMPH,Wind Direction,Wind SpeedMPH,Gust SpeedMPH,PrecipitationIn,Events,Conditions,WindDirDegrees,DateUTC
12:32 AM,62.6,15.8,16,29.92,2.0,NW,25.3,39.1,N/A,,Haze,310,2012-12-20 06:32:00
12:51 AM,60.1,17.1,19,29.91,3.0,NW,34.5,49.5,N/A,,Haze,310,2012-12-20 06:51:00
1:51 AM,51.1,21.9,32,29.99,8.0,NW,25.3,35.7,N/A,,Overcast,320,2012-12-20 07:51:00
2:51 AM,45.0,21.0,39,30.07,8.0,NW,25.3,34.5,N/A,,Overcast,320,2012-12-20 08:51:00
3:51 AM,43.0,19.9,40,30.11,10.0,NW,27.6,36.8,N/A,,Scattered Clouds,310,2012-12-20 09:51:00
4:51 AM,42.1,19.9,41,30.15,10.0,NW,21.9,34.5,N/A,,Clear,320,2012-12-20 10:51:00
5:51 AM,41.0,21.0,45,30.19,10.0,NW,19.6,28.8,N/A,,Clear,320,2012-12-20 11:51:00
6:51 AM,39.9,21.0,47,30.23,10.0,NW,12.7,24.2,N/A,,Clear,320,2012-12-20 12:51:00
7:51 AM,39.9,21.0,47,30.27,10.0,NW,13.8,-,N/A,,Clear,310,2012-12-20 13:51:00
8:51 AM,42.1,19.9,41,30.32,10.0,NW,19.6,25.3,N/A,,Clear,320,2012-12-20 14:51:00
9:51 AM,46.0,12.9,26,30.35,10.0,NNW,25.3,38.0,N/A,,Clear,340,2012-12-20 15:51:00
10:51 AM,48.2,10.4,22,30.38,10.0,NNW,25.3,35.7,N/A,,Clear,330,2012-12-20 16:51:00
11:51 AM,51.1,9.0,18,30.37,10.0,NNW,20.7,29.9,N/A,,Clear,330,2012-12-20 17:51:00
12:51 PM,52.0,3.9,14,30.36,10.0,NNW,27.6,36.8,N/A,,Clear,330,2012-12-20 18:51:00
1:51 PM,54.0,3.9,13,30.35,10.0,NNW,17.3,29.9,N/A,,Clear,330,2012-12-20 19:51:00
2:51 PM,53.6,1.4,12,30.36,10.0,NNW,19.6,27.6,N/A,,Clear,330,2012-12-20 20:51:00
3:51 PM,54.0,-0.9,11,30.36,10.0,NNW,16.1,24.2,N/A,,Clear,330,2012-12-20 21:51:00
4:51 PM,52.0,-2.0,11,30.39,10.0,NNW,13.8,23.0,N/A,,Clear,340,2012-12-20 22:51:00
5:51 PM,46.9,1.0,15,30.40,10.0,NW,8.1,-,N/A,,Clear,320,2012-12-20 23:51:00
6:51 PM,43.0,1.9,18,30.41,10.0,NW,6.9,-,N/A,,Clear,310,2012-12-21 00:51:00
7:51 PM,39.9,3.9,22,30.42,10.0,NW,6.9,-,N/A,,Clear,310,2012-12-21 01:51:00
8:51 PM,41.0,3.0,21,30.43,10.0,NW,8.1,-,N/A,,Clear,310,2012-12-21 02:51:00
9:51 PM,35.1,5.0,28,30.44,10.0,West,5.8,-,N/A,,Clear,280,2012-12-21 03:51:00
10:51 PM,27.0,9.0,47,30.45,10.0,West,5.8,-,N/A,,Clear,280,2012-12-21 04:51:00
11:51 PM,30.9,7.0,37,30.45,10.0,West,3.5,-,N/A,,Clear,260,2012-12-21 05:51:00